Tracking 26911 objects as of 8-Feb-2023
HD Live streaming from Space Station
objects crossing your sky now

NOAA 17 DEB

Track NOAA 17 DEB now!
10-day predictions


NORAD ID: 48702
Int'l Code: 2002-032AL
Perigee: 793.0 km
Apogee: 813.0 km
Inclination: 98.6 °
Period: 100.8 minutes
Semi major axis: 7173 km
RCS: Unknown
Launch date: June 24, 2002
Source: United States (US)
Launch site: AIR FORCE WESTERN TEST RANGE (AFWTR)

Note: This is SATELLITE DEBRIS
Your satellite tracking list
Your tracking list is empty




NASA's NSSDC Master Catalog

Two Line Element Set (TLE):
1 48702U 02032AK  23038.81234159  .00010375  00000-0  41277-2 0  9996
2 48702  98.6329 344.3331 0013926 290.3488  69.6197 14.28765425 99354
Source of the keplerian elements: AFSPC